Location: Hardisty
(52.6744°N, 111.3058°W)
Time: 21:09:36
(UTC+00:00)

Tiangong - Visible Passes

Search period start: 10 June 2023 00:00
Search period end: 20 June 2023 00:00
Orbit: 386 x 390 km, 41.5° (Epoch: 10 June)

Date Brightness Start Highest point End Pass type
(mag) Time Alt. Az. Time Alt. Az. Time Alt. Az.
10 Jun 0.0 09:29:17 12° S 09:29:17 12° S 09:30:22 10° SSE visible
18 Jun 0.1 04:52:25 10° S 04:53:10 11° S 04:53:55 10° SSE visible
19 Jun 0.1 05:29:26 10° SSW 05:30:25 11° S 05:30:25 11° S visible
